CZ-6A DEB, 61382

Orbit data source: Space-Track

CZ-6A DEB, 61382 is space debris in LEO originally from a launch on Tue, 06 Aug 2024 UTC launched from the Taiyaun Space Center, China (TSC). Debris objects in space refer to the collection of defunct objects orbiting the Earth. Examples of debris include non-operational satellites, rocket bodies, and fragments generated from explosions, collisions, or faulty payload assembly.

Loading next visibility...
Identifier
61382, 2024-140WX
Orbit
LEO
Country
Flag of CNCN / PRC
Related business
Manufacturer
SAST
Mission
Spacecraft
Bus & Motor
Unknown
Mass
Unknown
Launch date (UTC)
2024-08-06 (2 years ago)
Launch vehicle
Unknown
Launch site
Taiyaun Space Center, China (TSC)
Object type
Payload
Rocket body
Debris
Shape & HBR
Unknown shape, 0.1 m
Radar Cross Section
Medium (>0.1 m² and <1 m²)

Expand to show TLE details & history
Last TLE update: 17 hours ago

TLE from 17 hours ago
0 CZ-6A DEB
1 61382U 24140WX  26171.27588598  .00001401  00000-0  33782-3 0  9992
2 61382  88.9467 266.0677 0081224 292.1435  67.1165 14.50722537 94523
Epoch: 2026-06-20T06:37Z
TLE epoch observation values (Epoch: 2026-06-20T06:37:16.548Z)
Latitude
-0.00008°
Longitude
-101.74409°
Altitude
704.352 km
Speed
7.515 km/s
True Right ascension
17h 44m 16s
True Declination
0° 00' 00"
Sunlit
Object was in full shadow at epoch
Visualization orbit readout
Latitude
Unknown
Longitude
Unknown
Altitude
Unknown
Speed
Unknown
Apparent Right ascension
Unknown
Apparent Declination
Unknown
Sunlit
N/A
Visualization observer readout
Local Sidereal Time
10:17:08
Azimuth
Unknown
Elevation
Unknown
Doppler factor
Unknown
Orbital elements
Apogee altitude
777.852 km
Perigee altitude
662.541 km
Semi-major axis
7,098.334 km
Eccentricity
0.00812
Inclination
88.9467°
RAAN
266.0677°
Arg. of periapsis
292.1435°
True anomaly
67.97737°
Mean anomaly
67.1165°
Eccentric anomaly
67.5466°
Mean motion
3.62918 °/min
Orbital period
99.2 mins
BSTAR
0.00033782
Loading maneuver chart data...
Computing Atmospheric mass density...
Loading historical data...
Loading historical data...
Loading historical data...
Loading historical data...
Loading historical data...
Loading historical data...
Loading historical data...

Documentation

Showing up to 5 results
|